Time,TemperatureF,DewpointF,PressureIn,WindDirection,WindDirectionDegrees,WindSpeedMPH,WindSpeedGustMPH,Humidity,HourlyPrecipIn,Conditions,Clouds,dailyrainin,SoftwareType,DateUTC
2013-11-13 00:01:00,26.0,19.0,30.45,WNW,284,0.0,-999.0,76,-99.99,,,0.00,weatherlink.com 1.10,2013-11-13 05:01:00,
2013-11-13 00:16:00,25.8,19.0,30.44,West,278,0.0,-999.0,76,-99.99,,,0.00,weatherlink.com 1.10,2013-11-13 05:16:00,
2013-11-13 00:31:00,25.6,19.0,30.44,West,277,0.0,-999.0,76,-99.99,,,0.00,weatherlink.com 1.10,2013-11-13 05:31:00,
2013-11-13 00:46:00,25.4,19.0,30.44,West,275,0.0,-999.0,76,-99.99,,,0.00,weatherlink.com 1.10,2013-11-13 05:46:00,
2013-11-13 01:01:00,25.4,19.0,30.44,West,275,0.0,-999.0,76,-99.99,,,0.00,weatherlink.com 1.10,2013-11-13 06:01:00,
2013-11-13 01:16:00,25.0,18.0,30.43,West,275,0.0,-999.0,75,-99.99,,,0.00,weatherlink.com 1.10,2013-11-13 06:16:00,
2013-11-13 01:31:00,24.4,18.0,30.43,West,275,0.0,-999.0,76,-99.99,,,0.00,weatherlink.com 1.10,2013-11-13 06:31:00,
2013-11-13 01:46:00,24.4,18.0,30.44,West,275,0.0,-999.0,76,-99.99,,,0.00,weatherlink.com 1.10,2013-11-13 06:46:00,
2013-11-13 02:01:00,24.2,18.0,30.44,West,274,0.0,-999.0,76,-99.99,,,0.00,weatherlink.com 1.10,2013-11-13 07:01:00,
2013-11-13 02:16:00,24.2,18.0,30.44,West,274,0.0,-999.0,76,-99.99,,,0.00,weatherlink.com 1.10,2013-11-13 07:16:00,
2013-11-13 02:31:00,24.2,18.0,30.44,West,274,0.0,-999.0,77,-99.99,,,0.00,weatherlink.com 1.10,2013-11-13 07:31:00,
2013-11-13 02:46:00,24.7,18.0,30.44,West,274,0.0,-999.0,77,-99.99,,,0.00,weatherlink.com 1.10,2013-11-13 07:46:00,
2013-11-13 03:01:00,24.7,18.0,30.43,West,274,0.0,-999.0,77,-99.99,,,0.00,weatherlink.com 1.10,2013-11-13 08:01:00,
2013-11-13 03:16:00,24.5,18.0,30.44,West,274,0.0,-999.0,77,-99.99,,,0.00,weatherlink.com 1.10,2013-11-13 08:16:00,
2013-11-13 03:31:00,24.5,18.0,30.43,WSW,237,0.0,-999.0,76,-99.99,,,0.00,weatherlink.com 1.10,2013-11-13 08:31:00,
2013-11-13 03:46:00,24.2,18.0,30.44,SW,230,0.0,-999.0,76,-99.99,,,0.00,weatherlink.com 1.10,2013-11-13 08:46:00,
2013-11-13 04:01:00,24.2,18.0,30.45,WSW,254,2.0,-999.0,76,-99.99,,,0.00,weatherlink.com 1.10,2013-11-13 09:01:00,
2013-11-13 04:16:00,23.6,17.0,30.45,WSW,254,0.0,-999.0,76,-99.99,,,0.00,weatherlink.com 1.10,2013-11-13 09:16:00,
2013-11-13 04:31:00,23.3,17.0,30.45,WSW,251,0.0,-999.0,77,-99.99,,,0.00,weatherlink.com 1.10,2013-11-13 09:31:00,
2013-11-13 04:46:00,23.2,17.0,30.46,WSW,251,0.0,-999.0,78,-99.99,,,0.00,weatherlink.com 1.10,2013-11-13 09:46:00,
2013-11-13 05:01:00,23.0,17.0,30.46,WSW,251,0.0,-999.0,78,-99.99,,,0.00,weatherlink.com 1.10,2013-11-13 10:01:00,
2013-11-13 05:16:00,22.9,17.0,30.46,WSW,251,0.0,-999.0,78,-99.99,,,0.00,weatherlink.com 1.10,2013-11-13 10:16:00,
2013-11-13 05:31:00,22.5,17.0,30.47,WSW,250,0.0,-999.0,79,-99.99,,,0.00,weatherlink.com 1.10,2013-11-13 10:31:00,
2013-11-13 05:46:00,22.9,18.0,30.47,WSW,250,0.0,-999.0,80,-99.99,,,0.00,weatherlink.com 1.10,2013-11-13 10:46:00,
2013-11-13 06:01:00,22.7,17.0,30.47,South,172,1.0,-999.0,79,-99.99,,,0.00,weatherlink.com 1.10,2013-11-13 11:01:00,
2013-11-13 06:16:00,22.4,17.0,30.47,South,172,0.0,-999.0,80,-99.99,,,0.00,weatherlink.com 1.10,2013-11-13 11:16:00,
2013-11-13 06:31:00,22.1,17.0,30.48,South,172,0.0,-999.0,81,-99.99,,,0.00,weatherlink.com 1.10,2013-11-13 11:31:00,
2013-11-13 06:46:00,21.8,17.0,30.48,SSE,168,0.0,-999.0,82,-99.99,,,0.00,weatherlink.com 1.10,2013-11-13 11:46:00,
2013-11-13 07:01:00,21.6,17.0,30.48,SSE,167,0.0,-999.0,82,-99.99,,,0.00,weatherlink.com 1.10,2013-11-13 12:01:00,
2013-11-13 07:16:00,21.8,17.0,30.49,SSE,167,0.0,-999.0,82,-99.99,,,0.00,weatherlink.com 1.10,2013-11-13 12:16:00,
2013-11-13 07:31:00,21.4,17.0,30.50,SSE,167,0.0,-999.0,82,-99.99,,,0.00,weatherlink.com 1.10,2013-11-13 12:31:00,
2013-11-13 07:46:00,21.4,17.0,30.50,SSE,167,0.0,-999.0,83,-99.99,,,0.00,weatherlink.com 1.10,2013-11-13 12:46:00,
2013-11-13 08:01:00,21.8,17.0,30.50,SSE,167,0.0,-999.0,82,-99.99,,,0.00,weatherlink.com 1.10,2013-11-13 13:01:00,
2013-11-13 08:16:00,21.9,17.0,30.50,SSE,167,0.0,-999.0,82,-99.99,,,0.00,weatherlink.com 1.10,2013-11-13 13:16:00,
2013-11-13 08:31:00,22.1,17.0,30.51,SSE,161,0.0,-999.0,82,-99.99,,,0.00,weatherlink.com 1.10,2013-11-13 13:31:00,
2013-11-13 08:46:00,22.7,18.0,30.51,SSE,161,0.0,-999.0,81,-99.99,,,0.00,weatherlink.com 1.10,2013-11-13 13:46:00,
2013-11-13 09:16:00,23.9,18.0,30.51,SSE,157,0.0,-999.0,79,-99.99,,,0.00,weatherlink.com 1.10,2013-11-13 14:16:00,
2013-11-13 09:31:00,25.1,19.0,30.50,SE,128,0.0,-999.0,76,-99.99,,,0.00,weatherlink.com 1.10,2013-11-13 14:31:00,
2013-11-13 09:46:00,25.7,19.0,30.50,SSE,151,0.0,-999.0,75,-99.99,,,0.00,weatherlink.com 1.10,2013-11-13 14:46:00,
2013-11-13 10:01:00,26.1,19.0,30.50,WSW,251,0.0,-999.0,74,-99.99,,,0.00,weatherlink.com 1.10,2013-11-13 15:01:00,
2013-11-13 10:16:00,26.3,19.0,30.50,SSE,148,0.0,-999.0,74,-99.99,,,0.00,weatherlink.com 1.10,2013-11-13 15:16:00,
2013-11-13 10:31:00,27.2,19.0,30.51,South,179,0.0,-999.0,72,-99.99,,,0.00,weatherlink.com 1.10,2013-11-13 15:31:00,
2013-11-13 10:46:00,27.2,19.0,30.50,SSW,206,0.0,-999.0,71,-99.99,,,0.00,weatherlink.com 1.10,2013-11-13 15:46:00,
2013-11-13 11:01:00,28.8,20.0,30.50,SSW,200,2.0,-999.0,69,-99.99,,,0.00,weatherlink.com 1.10,2013-11-13 16:01:00,
2013-11-13 11:16:00,30.6,20.0,30.50,SSW,202,4.0,-999.0,64,-99.99,,,0.00,weatherlink.com 1.10,2013-11-13 16:16:00,
2013-11-13 11:31:00,29.5,19.0,30.50,SSW,199,2.0,-999.0,64,-99.99,,,0.01,weatherlink.com 1.10,2013-11-13 16:31:00,
2013-11-13 11:46:00,29.4,19.0,30.49,SSW,200,2.0,-999.0,64,-99.99,,,0.02,weatherlink.com 1.10,2013-11-13 16:46:00,
2013-11-13 12:01:00,30.7,18.0,30.48,WSW,246,6.0,-999.0,60,-99.99,,,0.02,weatherlink.com 1.10,2013-11-13 17:01:00,
2013-11-13 12:17:00,31.5,19.0,30.47,WNW,285,0.0,-999.0,59,-99.99,,,0.03,weatherlink.com 1.10,2013-11-13 17:17:00,
2013-11-13 12:32:00,31.8,18.0,30.47,SW,226,0.0,-999.0,57,-99.99,,,0.03,weatherlink.com 1.10,2013-11-13 17:32:00,
2013-11-13 12:47:00,31.9,19.0,30.46,WSW,241,0.0,-999.0,59,-99.99,,,0.04,weatherlink.com 1.10,2013-11-13 17:47:00,
2013-11-13 13:02:00,31.3,18.0,30.46,South,188,0.0,-999.0,58,-99.99,,,0.05,weatherlink.com 1.10,2013-11-13 18:02:00,
2013-11-13 13:17:00,31.2,18.0,30.45,SW,227,3.0,-999.0,59,-99.99,,,0.05,weatherlink.com 1.10,2013-11-13 18:17:00,
2013-11-13 13:32:00,32.1,19.0,30.44,WSW,248,3.0,-999.0,58,-99.99,,,0.05,weatherlink.com 1.10,2013-11-13 18:32:00,
2013-11-13 13:47:00,33.1,19.0,30.45,WSW,244,0.0,-999.0,56,-99.99,,,0.05,weatherlink.com 1.10,2013-11-13 18:47:00,
2013-11-13 14:02:00,33.1,18.0,30.45,WSW,239,3.0,-999.0,55,-99.99,,,0.05,weatherlink.com 1.10,2013-11-13 19:02:00,
2013-11-13 14:17:00,33.4,19.0,30.43,WSW,251,6.0,-999.0,55,-99.99,,,0.06,weatherlink.com 1.10,2013-11-13 19:17:00,
2013-11-13 14:32:00,34.3,19.0,30.43,SW,220,4.0,-999.0,54,-99.99,,,0.06,weatherlink.com 1.10,2013-11-13 19:32:00,
2013-11-13 14:47:00,34.3,18.0,30.43,WSW,251,8.0,-999.0,52,-99.99,,,0.06,weatherlink.com 1.10,2013-11-13 19:47:00,
2013-11-13 15:02:00,34.1,18.0,30.42,West,260,0.0,-999.0,52,-99.99,,,0.06,weatherlink.com 1.10,2013-11-13 20:02:00,
2013-11-13 15:17:00,34.7,18.0,30.42,South,172,0.0,-999.0,51,-99.99,,,0.06,weatherlink.com 1.10,2013-11-13 20:17:00,
2013-11-13 15:32:00,34.6,18.0,30.42,SW,236,0.0,-999.0,50,-99.99,,,0.06,weatherlink.com 1.10,2013-11-13 20:32:00,
2013-11-13 15:47:00,35.2,18.0,30.41,SW,222,0.0,-999.0,50,-99.99,,,0.06,weatherlink.com 1.10,2013-11-13 20:47:00,
2013-11-13 16:02:00,34.7,17.0,30.41,SSE,168,1.0,-999.0,49,-99.99,,,0.06,weatherlink.com 1.10,2013-11-13 21:02:00,
2013-11-13 16:17:00,33.8,17.0,30.41,SSW,209,2.0,-999.0,51,-99.99,,,0.06,weatherlink.com 1.10,2013-11-13 21:17:00,
2013-11-13 16:32:00,33.5,17.0,30.41,SSW,199,0.0,-999.0,52,-99.99,,,0.06,weatherlink.com 1.10,2013-11-13 21:32:00,
2013-11-13 16:47:00,33.4,18.0,30.41,South,191,0.0,-999.0,53,-99.99,,,0.06,weatherlink.com 1.10,2013-11-13 21:47:00,
2013-11-13 17:02:00,32.7,18.0,30.41,SE,141,0.0,-999.0,54,-99.99,,,0.06,weatherlink.com 1.10,2013-11-13 22:02:00,
2013-11-13 17:17:00,31.8,18.0,30.42,SSE,164,0.0,-999.0,57,-99.99,,,0.06,weatherlink.com 1.10,2013-11-13 22:17:00,
2013-11-13 17:32:00,31.2,18.0,30.41,South,178,0.0,-999.0,58,-99.99,,,0.06,weatherlink.com 1.10,2013-11-13 22:32:00,
2013-11-13 17:47:00,30.9,18.0,30.42,SE,127,0.0,-999.0,58,-99.99,,,0.06,weatherlink.com 1.10,2013-11-13 22:47:00,
2013-11-13 18:02:00,30.6,18.0,30.42,SE,141,0.0,-999.0,61,-99.99,,,0.06,weatherlink.com 1.10,2013-11-13 23:02:00,
2013-11-13 18:17:00,30.1,19.0,30.42,South,182,1.0,-999.0,63,-99.99,,,0.06,weatherlink.com 1.10,2013-11-13 23:17:00,
2013-11-13 18:32:00,30.0,19.0,30.42,SSW,199,4.0,-999.0,63,-99.99,,,0.06,weatherlink.com 1.10,2013-11-13 23:32:00,
2013-11-13 18:47:00,30.0,19.0,30.42,ESE,119,0.0,-999.0,63,-99.99,,,0.06,weatherlink.com 1.10,2013-11-13 23:47:00,
2013-11-13 19:02:00,29.8,19.0,30.42,SSW,196,0.0,-999.0,64,-99.99,,,0.06,weatherlink.com 1.10,2013-11-14 00:02:00,
2013-11-13 19:17:00,29.7,19.0,30.42,SE,145,1.0,-999.0,64,-99.99,,,0.06,weatherlink.com 1.10,2013-11-14 00:17:00,
2013-11-13 19:32:00,29.7,19.0,30.42,SE,131,2.0,-999.0,64,-99.99,,,0.06,weatherlink.com 1.10,2013-11-14 00:32:00,
2013-11-13 19:47:00,29.8,19.0,30.41,SE,130,0.0,-999.0,64,-99.99,,,0.06,weatherlink.com 1.10,2013-11-14 00:47:00,
2013-11-13 20:02:00,29.7,19.0,30.41,ESE,119,0.0,-999.0,64,-99.99,,,0.06,weatherlink.com 1.10,2013-11-14 01:02:00,
2013-11-13 20:17:00,29.5,19.0,30.41,SE,128,4.0,-999.0,65,-99.99,,,0.06,weatherlink.com 1.10,2013-11-14 01:17:00,
2013-11-13 20:32:00,29.5,19.0,30.41,SE,133,0.0,-999.0,65,-99.99,,,0.06,weatherlink.com 1.10,2013-11-14 01:32:00,
2013-11-13 20:47:00,29.7,19.0,30.40,SE,134,3.0,-999.0,64,-99.99,,,0.06,weatherlink.com 1.10,2013-11-14 01:47:00,
2013-11-13 21:02:00,29.4,19.0,30.41,SSE,155,2.0,-999.0,66,-99.99,,,0.06,weatherlink.com 1.10,2013-11-14 02:02:00,
2013-11-13 21:17:00,29.4,19.0,30.40,SE,128,2.0,-999.0,65,-99.99,,,0.06,weatherlink.com 1.10,2013-11-14 02:17:00,
2013-11-13 21:32:00,29.3,19.0,30.40,SSE,151,2.0,-999.0,66,-99.99,,,0.06,weatherlink.com 1.10,2013-11-14 02:32:00,
2013-11-13 21:47:00,29.4,19.0,30.39,SE,126,2.0,-999.0,66,-99.99,,,0.06,weatherlink.com 1.10,2013-11-14 02:47:00,
2013-11-13 22:02:00,29.4,19.0,30.39,SE,133,0.0,-999.0,66,-99.99,,,0.06,weatherlink.com 1.10,2013-11-14 03:02:00,
2013-11-13 22:17:00,29.3,19.0,30.38,South,176,0.0,-999.0,65,-99.99,,,0.06,weatherlink.com 1.10,2013-11-14 03:17:00,
2013-11-13 22:32:00,29.3,19.0,30.38,SSE,161,0.0,-999.0,66,-99.99,,,0.06,weatherlink.com 1.10,2013-11-14 03:32:00,
2013-11-13 22:47:00,29.4,19.0,30.36,ESE,121,1.0,-999.0,65,-99.99,,,0.06,weatherlink.com 1.10,2013-11-14 03:47:00,
2013-11-13 23:02:00,29.4,19.0,30.36,East,88,0.0,-999.0,65,-99.99,,,0.00,weatherlink.com 1.10,2013-11-14 04:02:00,
2013-11-13 23:17:00,29.4,19.0,30.36,SSW,206,5.0,-999.0,64,-99.99,,,0.00,weatherlink.com 1.10,2013-11-14 04:17:00,
2013-11-13 23:32:00,29.4,19.0,30.36,SE,127,0.0,-999.0,64,-99.99,,,0.00,weatherlink.com 1.10,2013-11-14 04:32:00,
2013-11-13 23:47:00,29.3,18.0,30.36,ESE,121,0.0,-999.0,64,-99.99,,,0.00,weatherlink.com 1.10,2013-11-14 04:47:00,